Location: Brede
(50.9167°N, 0.6000°E)
Time: 02:35:26
(UTC+00:00)

Cosmos 1486 Rocket - Pass Details

Date: 08 August 2020
Orbit: 758 x 784 km, 74.1° (Epoch: 27 September)

Event Time Altitude Azimuth Distance (km) Brightness Sun altitude
Exits shadow 00:27:48 49° 231° (SW) 981 4.2 -22.8°
Maximum altitude 00:29:08 70° 296° (WNW) 810 4.1 -22.8°
Drops below altitude 10° 00:34:21 10° 21° (NNE) 2,301 7.5 -22.7°
Sets 00:36:44 0° 24° (NNE) 3,230 8.6 -22.6°
